contact:dominique.lefevre@mio.osupytheas.fr, maurice.libes@osupytheas.fr, didier.mallarino@osupytheas.fr
Project:EMSO http://www.emso-fr.org/EMSO-France
Depth: 2436.0 m
Title:EMSO Ligure Ouest : Data MII capteur AQUADOPP
Date,Latitude,Longitude,X_East,Y_North,Z_Up,Amplitude_X,Amplitude_Y,Amplitude_Z,Batterie,SoundSpeed,Heading,Pitch,Roll,Pressure,TIS,Speed,Direction
, degrees North, degrees East, m.s-1, m.s-1,m.s-1, 1, 1, 1, Volt, m.s-1, degree, degree, degree, dbar, degree_C, m.s-1, degree
2020-03-13T00:04:03,42.805,6.029,-0.024,0.007,-0.025,105.0,106.0,101.0,13.4,1505.2,324.9,-0.8,1.8,2470.334,13.3,0.025,286.3
2020-03-13T00:07:03,42.805,6.029,-0.008,-0.01,-0.049,104.0,106.0,101.0,13.4,1505.3,324.4,-0.7,1.9,2470.297,13.31,0.012,218.7
2020-03-13T00:10:03,42.805,6.029,-0.031,-0.026,-0.037,103.0,106.0,102.0,13.4,1505.3,324.8,-0.7,1.8,2470.303,13.32,0.04,230.0
2020-03-13T00:13:03,42.805,6.029,-0.017,-0.013,-0.031,105.0,104.0,101.0,13.3,1505.3,324.7,-0.7,1.9,2470.292,13.32,0.021,232.6
2020-03-13T00:16:03,42.805,6.029,-0.016,-0.034,-0.025,105.0,105.0,101.0,13.4,1505.3,327.0,-0.7,1.9,2470.312,13.32,0.037,205.2
2020-03-13T00:19:03,42.805,6.029,-0.022,-0.017,-0.038,104.0,105.0,101.0,13.4,1505.3,322.9,-0.7,1.9,2470.276,13.32,0.027,232.3
2020-03-13T00:22:03,42.805,6.029,-0.047,-0.027,-0.009,104.0,104.0,102.0,13.4,1505.3,325.6,-0.7,1.8,2470.267,13.32,0.054,240.1
2020-03-13T00:25:03,42.805,6.029,-0.029,-0.011,-0.027,104.0,105.0,101.0,13.4,1505.3,326.1,-0.7,1.8,2470.244,13.32,0.031,249.2
2020-03-13T00:28:03,42.805,6.029,-0.03,-0.026,-0.054,103.0,105.0,102.0,13.4,1505.3,325.4,-0.7,1.8,2470.29,13.32,0.039,229.1
2020-03-13T00:31:03,42.805,6.029,-0.013,-0.02,-0.065,104.0,104.0,102.0,13.4,1505.3,325.4,-0.7,1.8,2470.302,13.32,0.023,213.0
2020-03-13T00:34:03,42.805,6.029,-0.022,-0.026,-0.026,104.0,104.0,103.0,13.4,1505.3,327.0,-0.7,1.9,2470.262,13.32,0.034,220.2
2020-03-13T00:37:03,42.805,6.029,-0.043,-0.028,-0.033,104.0,105.0,101.0,13.4,1505.3,325.4,-0.7,1.8,2470.277,13.32,0.051,236.9
2020-03-13T00:40:03,42.805,6.029,-0.026,-0.008,-0.044,104.0,105.0,102.0,13.3,1505.3,327.3,-0.7,1.8,2470.208,13.32,0.027,252.9
2020-03-13T00:43:03,42.805,6.029,-0.038,-0.032,-0.079,105.0,105.0,101.0,13.4,1505.3,326.1,-0.7,1.8,2470.26,13.32,0.049,229.9
2020-03-13T00:46:03,42.805,6.029,-0.024,-0.021,-0.039,105.0,105.0,101.0,13.4,1505.3,323.6,-0.7,1.9,2470.247,13.32,0.031,228.8
2020-03-13T00:49:03,42.805,6.029,-0.057,-0.042,-0.07,104.0,105.0,103.0,13.3,1505.3,324.2,-0.7,1.8,2470.29,13.32,0.07,233.6
2020-03-13T00:52:03,42.805,6.029,-0.042,-0.025,-0.05,104.0,105.0,103.0,13.4,1505.3,325.4,-0.7,1.8,2470.26,13.32,0.048,239.2
2020-03-13T00:55:03,42.805,6.029,-0.056,-0.016,-0.061,105.0,104.0,102.0,13.4,1505.3,325.4,-0.7,1.8,2470.277,13.32,0.058,254.1
2020-03-13T00:58:03,42.805,6.029,-0.047,-0.055,-0.061,105.0,105.0,102.0,13.4,1505.3,323.5,-0.7,1.8,2470.282,13.32,0.072,220.5
2020-03-13T01:04:03,42.805,6.029,-0.028,-0.015,-0.074,106.0,106.0,103.0,13.4,1505.2,328.5,-0.7,1.9,2470.243,13.3,0.031,241.8
2020-03-13T01:07:03,42.805,6.029,-0.031,-0.037,-0.023,105.0,105.0,102.0,13.4,1505.3,323.1,-0.7,1.8,2470.264,13.31,0.048,220.0
2020-03-13T01:10:03,42.805,6.029,-0.047,-0.025,-0.052,104.0,104.0,101.0,13.3,1505.3,325.7,-0.7,1.8,2470.281,13.32,0.053,242.0
2020-03-13T01:13:03,42.805,6.029,-0.032,-0.003,-0.039,104.0,105.0,102.0,13.4,1505.3,325.7,-0.7,1.8,2470.283,13.32,0.032,264.6
2020-03-13T01:16:03,42.805,6.029,-0.03,-0.034,-0.018,106.0,105.0,101.0,13.3,1505.3,323.6,-0.7,1.8,2470.27,13.32,0.045,221.4
2020-03-13T01:19:03,42.805,6.029,-0.03,-0.061,-0.054,104.0,105.0,102.0,13.4,1505.3,323.7,-0.7,1.8,2470.264,13.32,0.067,206.2
2020-03-13T01:22:03,42.805,6.029,-0.028,-0.056,-0.07,105.0,104.0,101.0,13.4,1505.3,324.4,-0.7,1.8,2470.24,13.32,0.062,206.6
2020-03-13T01:25:03,42.805,6.029,-0.015,-0.008,-0.027,105.0,106.0,102.0,13.3,1505.3,325.5,-0.7,1.9,2470.261,13.32,0.017,241.9
2020-03-13T01:28:03,42.805,6.029,-0.045,-0.017,-0.007,104.0,105.0,102.0,13.4,1505.3,326.9,-0.7,1.8,2470.174,13.32,0.048,249.3
2020-03-13T01:31:03,42.805,6.029,-0.03,-0.027,-0.069,104.0,105.0,101.0,13.3,1505.3,326.1,-0.7,1.8,2470.227,13.32,0.04,228.0
2020-03-13T01:34:03,42.805,6.029,-0.04,-0.041,-0.013,104.0,105.0,102.0,13.4,1505.3,325.2,-0.7,1.8,2470.253,13.32,0.057,224.3
2020-03-13T01:37:03,42.805,6.029,-0.039,-0.015,-0.051,105.0,105.0,102.0,13.3,1505.3,324.2,-0.8,1.9,2470.195,13.32,0.041,249.0
2020-03-13T01:40:03,42.805,6.029,-0.029,-0.029,-0.058,105.0,104.0,102.0,13.3,1505.3,326.4,-0.7,1.8,2470.192,13.32,0.041,225.0
2020-03-13T01:43:03,42.805,6.029,-0.037,-0.035,-0.048,105.0,104.0,103.0,13.4,1505.3,326.4,-0.7,1.8,2470.215,13.32,0.05,226.6
2020-03-13T01:46:03,42.805,6.029,-0.023,-0.017,-0.044,104.0,106.0,102.0,13.4,1505.3,327.3,-0.7,1.8,2470.225,13.32,0.028,233.5
2020-03-13T01:49:03,42.805,6.029,-0.042,-0.037,-0.05,104.0,104.0,102.0,13.4,1505.3,326.5,-0.7,1.8,2470.204,13.32,0.055,228.6
2020-03-13T01:55:03,42.805,6.029,-0.019,-0.017,-0.01,105.0,106.0,104.0,13.4,1505.2,323.2,-0.7,1.8,2470.237,13.3,0.025,228.2
2020-03-13T01:58:03,42.805,6.029,-0.019,-0.022,-0.024,106.0,105.0,102.0,13.4,1505.3,323.8,-0.7,1.8,2470.204,13.31,0.029,220.8
2020-03-13T02:04:03,42.805,6.029,-0.062,-0.024,-0.052,104.0,106.0,103.0,13.4,1505.2,326.9,-0.8,1.8,2470.201,13.3,0.066,248.8
2020-03-13T02:07:03,42.805,6.029,-0.054,-0.036,-0.049,105.0,105.0,102.0,13.3,1505.3,327.3,-0.7,1.8,2470.254,13.31,0.064,236.3
2020-03-13T02:10:03,42.805,6.029,-0.021,-0.021,-0.019,105.0,106.0,102.0,13.4,1505.3,326.8,-0.7,1.8,2470.228,13.31,0.029,225.0
2020-03-13T02:13:03,42.805,6.029,-0.047,-0.023,-0.028,105.0,104.0,101.0,13.4,1505.3,326.9,-0.7,1.8,2470.24,13.32,0.052,243.9
2020-03-13T02:16:03,42.805,6.029,-0.019,-0.034,-0.049,105.0,105.0,101.0,13.3,1505.3,327.8,-0.7,1.8,2470.216,13.32,0.038,209.2
2020-03-13T02:19:03,42.805,6.029,-0.049,-0.036,-0.058,103.0,106.0,102.0,13.4,1505.3,327.1,-0.7,1.8,2470.243,13.32,0.06,233.7
2020-03-13T02:22:03,42.805,6.029,-0.033,-0.014,-0.031,105.0,105.0,101.0,13.4,1505.3,324.4,-0.7,1.8,2470.17,13.32,0.035,247.0
2020-03-13T02:25:03,42.805,6.029,-0.033,-0.036,-0.032,105.0,105.0,101.0,13.4,1505.3,323.3,-0.7,1.8,2470.217,13.32,0.048,222.5
2020-03-13T02:28:03,42.805,6.029,-0.027,-0.043,-0.033,106.0,104.0,102.0,13.4,1505.3,325.0,-0.7,1.9,2470.178,13.32,0.05,212.1
2020-03-13T02:31:03,42.805,6.029,-0.033,-0.022,-0.059,105.0,105.0,103.0,13.3,1505.3,326.1,-0.7,1.9,2470.181,13.32,0.039,236.3
2020-03-13T02:34:03,42.805,6.029,-0.038,-0.04,-0.022,106.0,105.0,102.0,13.4,1505.3,326.9,-0.7,1.9,2470.197,13.32,0.055,223.5
2020-03-13T02:37:03,42.805,6.029,-0.043,-0.04,-0.027,105.0,106.0,102.0,13.4,1505.3,326.3,-0.7,1.8,2470.151,13.32,0.058,227.1
2020-03-13T02:40:03,42.805,6.029,-0.016,-0.052,-0.04,106.0,105.0,102.0,13.3,1505.3,323.2,-0.7,1.8,2470.128,13.32,0.054,197.1
2020-03-13T02:43:03,42.805,6.029,-0.044,-0.021,-0.046,104.0,105.0,102.0,13.4,1505.3,327.1,-0.7,1.8,2470.185,13.32,0.048,244.5
2020-03-13T02:46:03,42.805,6.029,-0.013,-0.026,-0.019,105.0,103.0,102.0,13.3,1505.3,325.9,-0.7,1.8,2470.173,13.32,0.029,206.6
2020-03-13T02:49:03,42.805,6.029,-0.054,-0.014,-0.014,105.0,105.0,102.0,13.4,1505.3,324.3,-0.7,1.8,2470.174,13.32,0.055,255.5
2020-03-13T02:52:03,42.805,6.029,-0.023,-0.035,-0.044,105.0,105.0,102.0,13.4,1505.3,325.0,-0.7,1.9,2470.184,13.32,0.041,213.3
2020-03-13T02:55:03,42.805,6.029,-0.039,-0.011,-0.05,106.0,104.0,102.0,13.4,1505.3,326.9,-0.7,1.8,2470.147,13.32,0.04,254.3
2020-03-13T02:58:03,42.805,6.029,-0.039,-0.026,-0.036,105.0,104.0,102.0,13.4,1505.3,325.6,-0.7,1.8,2470.162,13.32,0.046,236.3
2020-03-13T03:04:03,42.805,6.029,-0.055,-0.023,-0.056,105.0,104.0,103.0,13.4,1505.2,326.4,-0.7,1.8,2470.165,13.3,0.059,247.3
2020-03-13T03:07:03,42.805,6.029,-0.047,-0.021,-0.052,104.0,105.0,102.0,13.4,1505.3,326.4,-0.8,1.8,2470.165,13.31,0.051,245.9
2020-03-13T03:10:03,42.805,6.029,-0.029,-0.029,-0.037,103.0,105.0,103.0,13.4,1505.3,326.4,-0.7,1.8,2470.165,13.31,0.041,225.0
2020-03-13T03:13:03,42.805,6.029,-0.018,-0.035,-0.016,106.0,107.0,102.0,13.3,1505.3,326.7,-0.7,1.8,2470.159,13.32,0.039,207.2
2020-03-13T03:16:03,42.805,6.029,-0.054,-0.035,-0.05,105.0,104.0,103.0,13.4,1505.3,326.3,-0.7,1.8,2470.163,13.32,0.064,237.0
2020-03-13T03:19:03,42.805,6.029,-0.02,-0.032,-0.031,106.0,105.0,101.0,13.4,1505.3,326.8,-0.7,1.8,2470.161,13.32,0.037,212.0
2020-03-13T03:22:03,42.805,6.029,-0.037,-0.044,-0.028,105.0,105.0,102.0,13.4,1505.3,326.7,-0.7,1.9,2470.177,13.32,0.057,220.1
2020-03-13T03:25:03,42.805,6.029,-0.047,-0.021,-0.054,106.0,105.0,102.0,13.4,1505.3,326.6,-0.7,1.8,2470.222,13.32,0.051,245.9
2020-03-13T03:28:03,42.805,6.029,-0.035,-0.015,-0.033,105.0,106.0,104.0,13.4,1505.3,326.2,-0.7,1.8,2470.2,13.32,0.038,246.8
2020-03-13T03:31:03,42.805,6.029,-0.04,-0.038,-0.05,106.0,104.0,101.0,13.4,1505.3,326.5,-0.7,1.9,2470.148,13.32,0.055,226.5
2020-03-13T03:34:03,42.805,6.029,-0.043,-0.043,-0.051,105.0,105.0,102.0,13.4,1505.3,325.1,-0.7,1.9,2470.137,13.32,0.06,225.0
2020-03-13T03:37:03,42.805,6.029,-0.031,-0.018,-0.056,105.0,106.0,101.0,13.4,1505.3,325.0,-0.7,1.8,2470.176,13.32,0.035,239.9
2020-03-13T03:40:03,42.805,6.029,-0.042,-0.041,-0.03,105.0,104.0,102.0,13.4,1505.3,326.2,-0.7,1.8,2470.147,13.32,0.058,225.7
2020-03-13T03:43:03,42.805,6.029,-0.036,-0.031,-0.007,106.0,105.0,102.0,13.4,1505.3,327.0,-0.7,1.8,2470.167,13.32,0.047,229.3
2020-03-13T03:46:03,42.805,6.029,-0.045,-0.034,-0.065,105.0,106.0,103.0,13.3,1505.3,326.3,-0.7,1.8,2470.139,13.32,0.056,232.9
2020-03-13T03:49:03,42.805,6.029,-0.055,-0.048,-0.025,105.0,106.0,102.0,13.3,1505.3,323.3,-0.7,1.8,2470.116,13.32,0.072,228.9
2020-03-13T03:52:03,42.805,6.029,-0.054,-0.033,-0.024,106.0,106.0,103.0,13.3,1505.3,327.9,-0.7,1.8,2470.15,13.32,0.063,238.6
2020-03-13T03:55:03,42.805,6.029,-0.05,-0.028,-0.02,105.0,106.0,101.0,13.4,1505.3,326.7,-0.8,1.8,2470.161,13.32,0.057,240.7
2020-03-13T03:58:03,42.805,6.029,-0.049,-0.025,-0.037,105.0,103.0,102.0,13.4,1505.3,325.0,-0.7,1.8,2470.146,13.32,0.055,243.0
2020-03-13T04:04:03,42.805,6.029,-0.047,-0.027,-0.054,104.0,105.0,102.0,13.3,1505.2,323.3,-0.7,1.8,2470.208,13.3,0.054,240.1
2020-03-13T04:07:03,42.805,6.029,-0.054,-0.016,-0.043,104.0,105.0,102.0,13.4,1505.3,327.5,-0.7,1.8,2470.167,13.31,0.056,253.5
2020-03-13T04:10:03,42.805,6.029,-0.055,0.003,-0.036,105.0,104.0,102.0,13.3,1505.3,327.1,-0.7,1.8,2470.159,13.31,0.055,273.1
2020-03-13T04:13:03,42.805,6.029,-0.053,-0.022,-0.037,105.0,105.0,103.0,13.3,1505.3,325.1,-0.7,1.8,2470.179,13.32,0.057,247.5
2020-03-13T04:16:03,42.805,6.029,-0.072,-0.015,-0.041,104.0,105.0,101.0,13.4,1505.3,323.0,-0.7,1.8,2470.176,13.32,0.073,258.2
2020-03-13T04:19:03,42.805,6.029,-0.066,-0.026,-0.054,104.0,105.0,102.0,13.4,1505.3,326.6,-0.7,1.8,2470.175,13.32,0.07,248.5
2020-03-13T04:22:03,42.805,6.029,-0.039,-0.005,-0.015,103.0,104.0,102.0,13.4,1505.3,326.5,-0.7,1.8,2470.171,13.32,0.039,262.7
2020-03-13T04:25:03,42.805,6.029,-0.049,-0.007,-0.051,104.0,104.0,101.0,13.4,1505.3,328.2,-0.7,1.9,2470.142,13.32,0.049,261.9
2020-03-13T04:28:03,42.805,6.029,-0.044,0.003,-0.023,104.0,104.0,101.0,13.3,1505.3,324.4,-0.7,1.9,2470.157,13.32,0.044,273.9
2020-03-13T04:31:03,42.805,6.029,-0.033,-0.001,-0.025,104.0,106.0,101.0,13.4,1505.3,324.4,-0.7,1.8,2470.22,13.32,0.033,268.3
2020-03-13T04:34:03,42.805,6.029,-0.053,-0.025,-0.031,104.0,106.0,100.0,13.4,1505.3,325.2,-0.7,1.8,2470.184,13.32,0.058,244.7
2020-03-13T04:37:03,42.805,6.029,-0.057,-0.001,-0.035,104.0,104.0,101.0,13.3,1505.3,328.0,-0.7,1.8,2470.183,13.32,0.057,269.0
2020-03-13T04:40:03,42.805,6.029,-0.064,-0.025,-0.077,104.0,105.0,101.0,13.4,1505.3,326.6,-0.7,1.8,2470.134,13.32,0.068,248.7
2020-03-13T04:43:03,42.805,6.029,-0.035,-0.01,-0.041,104.0,104.0,101.0,13.4,1505.3,323.3,-0.7,1.8,2470.151,13.32,0.036,254.1
2020-03-13T04:46:03,42.805,6.029,-0.045,-0.007,-0.053,105.0,104.0,101.0,13.4,1505.3,326.2,-0.7,1.8,2470.152,13.32,0.045,261.2
2020-03-13T04:49:03,42.805,6.029,-0.048,-0.006,-0.035,104.0,105.0,101.0,13.4,1505.3,326.6,-0.7,1.8,2470.113,13.32,0.048,262.9
2020-03-13T04:52:03,42.805,6.029,-0.065,-0.018,-0.08,104.0,105.0,102.0,13.3,1505.3,328.3,-0.7,1.8,2470.144,13.32,0.067,254.5
2020-03-13T04:55:03,42.805,6.029,-0.033,0.007,-0.042,104.0,106.0,102.0,13.4,1505.3,326.9,-0.7,1.8,2470.169,13.32,0.033,282.0
2020-03-13T04:58:03,42.805,6.029,-0.051,-0.032,-0.028,105.0,106.0,101.0,13.4,1505.3,328.0,-0.7,1.9,2470.161,13.32,0.06,237.9
2020-03-13T05:04:03,42.805,6.029,-0.045,-0.007,-0.032,103.0,104.0,101.0,13.4,1505.2,326.8,-0.7,1.8,2470.169,13.3,0.045,261.2
2020-03-13T05:07:03,42.805,6.029,-0.049,-0.021,-0.025,106.0,104.0,102.0,13.4,1505.3,326.4,-0.7,1.8,2470.161,13.31,0.053,246.8
2020-03-13T05:10:03,42.805,6.029,-0.04,-0.014,-0.04,105.0,105.0,101.0,13.4,1505.3,328.1,-0.7,1.8,2470.191,13.31,0.042,250.7
2020-03-13T05:13:03,42.805,6.029,-0.037,-0.024,-0.023,104.0,106.0,101.0,13.4,1505.3,323.5,-0.7,1.8,2470.201,13.32,0.044,237.0
2020-03-13T05:16:03,42.805,6.029,-0.048,0.01,-0.059,104.0,106.0,101.0,13.4,1505.3,326.6,-0.7,1.8,2470.181,13.32,0.049,281.8
2020-03-13T05:19:03,42.805,6.029,-0.069,-0.017,-0.037,105.0,105.0,101.0,13.3,1505.3,326.6,-0.7,1.8,2470.159,13.32,0.071,256.2
2020-03-13T05:22:03,42.805,6.029,-0.033,0.006,0.004,105.0,106.0,101.0,13.3,1505.3,327.6,-0.7,1.8,2470.202,13.32,0.033,280.3
2020-03-13T05:25:03,42.805,6.029,-0.021,-0.012,-0.028,105.0,105.0,102.0,13.4,1505.3,324.3,-0.7,1.8,2470.155,13.32,0.024,240.3
2020-03-13T05:28:03,42.805,6.029,-0.069,-0.008,-0.054,105.0,105.0,101.0,13.4,1505.3,323.8,-0.7,1.8,2470.191,13.32,0.069,263.4
2020-03-13T05:31:03,42.805,6.029,-0.051,0.001,-0.004,104.0,104.0,101.0,13.4,1505.3,327.8,-0.7,1.8,2470.148,13.32,0.051,271.1
2020-03-13T05:34:03,42.805,6.029,-0.051,-0.003,-0.059,104.0,104.0,101.0,13.4,1505.3,328.4,-0.7,1.8,2470.168,13.32,0.051,266.6
2020-03-13T05:37:03,42.805,6.029,-0.049,-0.002,-0.027,103.0,105.0,102.0,13.3,1505.3,325.3,-0.7,1.8,2470.175,13.32,0.049,267.7
2020-03-13T05:40:03,42.805,6.029,-0.048,-0.02,-0.049,104.0,105.0,102.0,13.4,1505.3,323.7,-0.7,1.9,2470.22,13.32,0.052,247.4
2020-03-13T05:43:03,42.805,6.029,-0.037,0.0,-0.031,105.0,106.0,102.0,13.4,1505.3,327.0,-0.7,1.8,2470.164,13.32,0.037,270.0
2020-03-13T05:46:03,42.805,6.029,-0.045,-0.005,-0.026,104.0,106.0,102.0,13.4,1505.3,324.7,-0.7,1.8,2470.216,13.32,0.045,263.7
2020-03-13T05:49:03,42.805,6.029,-0.034,-0.012,-0.066,106.0,104.0,102.0,13.4,1505.3,324.7,-0.7,1.8,2470.172,13.32,0.036,250.6
2020-03-13T05:52:03,42.805,6.029,-0.05,-0.005,-0.028,103.0,105.0,102.0,13.3,1505.3,323.8,-0.7,1.8,2470.157,13.32,0.05,264.3
2020-03-13T05:55:03,42.805,6.029,-0.035,0.0,-0.043,105.0,106.0,102.0,13.4,1505.3,326.9,-0.7,1.8,2470.205,13.32,0.035,270.0
2020-03-13T05:58:03,42.805,6.029,-0.037,-0.003,-0.045,105.0,106.0,101.0,13.4,1505.3,328.6,-0.7,1.9,2470.186,13.32,0.037,265.4
2020-03-13T06:04:03,42.805,6.029,-0.029,-0.01,-0.037,105.0,105.0,102.0,13.3,1505.2,327.0,-0.8,1.9,2470.196,13.3,0.03,251.0
2020-03-13T06:07:03,42.805,6.029,-0.066,0.001,-0.053,104.0,104.0,101.0,13.4,1505.3,324.6,-0.7,1.9,2470.227,13.31,0.066,270.9
2020-03-13T06:10:03,42.805,6.029,-0.035,-0.042,-0.048,104.0,105.0,103.0,13.4,1505.3,325.9,-0.7,1.8,2470.192,13.31,0.054,219.8
2020-03-13T06:13:03,42.805,6.029,-0.066,-0.013,-0.023,105.0,105.0,101.0,13.4,1505.3,327.1,-0.7,1.8,2470.203,13.32,0.067,258.9
2020-03-13T06:16:03,42.805,6.029,-0.049,-0.009,-0.043,104.0,104.0,102.0,13.4,1505.3,328.3,-0.7,1.8,2470.21,13.32,0.049,259.6
2020-03-13T06:19:03,42.805,6.029,-0.056,-0.015,-0.067,104.0,106.0,103.0,13.4,1505.3,327.4,-0.7,1.8,2470.218,13.32,0.057,255.0
2020-03-13T06:22:03,42.805,6.029,-0.064,-0.004,-0.026,105.0,105.0,101.0,13.4,1505.3,324.4,-0.7,1.9,2470.224,13.32,0.064,266.4
2020-03-13T06:25:03,42.805,6.029,-0.044,-0.002,-0.06,105.0,104.0,102.0,13.4,1505.3,326.5,-0.7,1.8,2470.194,13.32,0.044,267.4
2020-03-13T06:28:03,42.805,6.029,-0.043,-0.004,-0.038,105.0,105.0,102.0,13.4,1505.3,324.0,-0.7,1.8,2470.292,13.32,0.043,264.7
2020-03-13T06:31:03,42.805,6.029,-0.054,-0.012,-0.025,105.0,105.0,101.0,13.4,1505.3,325.0,-0.7,1.8,2470.236,13.32,0.055,257.5
2020-03-13T06:34:03,42.805,6.029,-0.042,-0.013,-0.024,104.0,105.0,102.0,13.3,1505.3,324.9,-0.7,1.9,2470.238,13.32,0.043,252.8
2020-03-13T06:37:03,42.805,6.029,-0.049,0.0,-0.036,104.0,104.0,102.0,13.4,1505.3,328.4,-0.7,1.8,2470.253,13.32,0.049,270.0
2020-03-13T06:40:03,42.805,6.029,-0.041,-0.009,-0.065,105.0,105.0,101.0,13.3,1505.3,328.6,-0.7,1.8,2470.226,13.32,0.041,257.6
2020-03-13T06:43:03,42.805,6.029,-0.052,0.005,-0.023,105.0,105.0,102.0,13.4,1505.3,328.4,-0.7,1.8,2470.225,13.32,0.052,275.5
2020-03-13T06:46:03,42.805,6.029,-0.041,0.011,-0.02,105.0,106.0,101.0,13.4,1505.3,327.9,-0.7,1.8,2470.232,13.32,0.042,285.0
2020-03-13T06:49:03,42.805,6.029,-0.057,-0.004,-0.055,104.0,105.0,101.0,13.4,1505.3,324.6,-0.7,1.8,2470.265,13.32,0.057,266.0
2020-03-13T06:52:03,42.805,6.029,-0.052,0.009,-0.017,104.0,105.0,101.0,13.3,1505.3,326.9,-0.7,1.8,2470.206,13.32,0.052,279.8
2020-03-13T06:55:03,42.805,6.029,-0.037,-0.005,-0.024,105.0,105.0,100.0,13.3,1505.3,326.1,-0.7,1.9,2470.297,13.32,0.037,262.3
2020-03-13T06:58:03,42.805,6.029,-0.028,-0.019,-0.013,105.0,103.0,101.0,13.4,1505.3,324.6,-0.7,1.8,2470.237,13.32,0.033,235.8
2020-03-13T07:04:03,42.805,6.029,-0.02,0.007,-0.018,104.0,106.0,102.0,13.4,1505.2,326.0,-0.7,1.8,2470.362,13.3,0.021,289.3
2020-03-13T07:07:03,42.805,6.029,-0.002,-0.004,-0.041,104.0,105.0,103.0,13.4,1505.3,326.0,-0.7,1.8,2470.293,13.31,0.004,206.6
2020-03-13T07:10:03,42.805,6.029,-0.074,-0.03,-0.038,104.0,105.0,102.0,13.4,1505.3,324.0,-0.7,1.9,2470.306,13.32,0.079,247.9
2020-03-13T07:13:03,42.805,6.029,-0.044,-0.027,-0.064,105.0,105.0,102.0,13.4,1505.3,325.6,-0.7,1.8,2470.273,13.32,0.051,238.5
2020-03-13T07:16:03,42.805,6.029,-0.03,-0.024,-0.054,105.0,106.0,101.0,13.4,1505.3,326.2,-0.7,1.8,2470.317,13.32,0.038,231.3
2020-03-13T07:19:03,42.805,6.029,-0.044,0.006,-0.045,105.0,106.0,102.0,13.4,1505.3,325.5,-0.7,1.8,2470.314,13.32,0.044,277.8
2020-03-13T07:22:03,42.805,6.029,-0.045,-0.019,-0.037,105.0,106.0,104.0,13.4,1505.3,326.8,-0.7,1.8,2470.338,13.32,0.048,247.1
2020-03-13T07:25:03,42.805,6.029,-0.031,0.002,-0.028,104.0,106.0,102.0,13.4,1505.3,326.8,-0.7,1.8,2470.338,13.32,0.031,273.7
2020-03-13T07:28:03,42.805,6.029,-0.049,-0.011,-0.034,106.0,106.0,103.0,13.3,1505.3,326.5,-0.7,1.8,2470.365,13.32,0.05,257.3
2020-03-13T07:31:03,42.805,6.029,-0.054,0.007,-0.046,105.0,106.0,103.0,13.4,1505.3,325.4,-0.7,1.8,2470.306,13.32,0.054,277.4
2020-03-13T07:34:03,42.805,6.029,-0.034,0.012,-0.037,106.0,108.0,103.0,13.3,1505.3,327.4,-0.7,1.9,2470.36,13.32,0.036,289.4
2020-03-13T07:37:03,42.805,6.029,-0.017,0.026,-0.022,105.0,107.0,102.0,13.3,1505.3,325.7,-0.7,1.8,2470.335,13.32,0.031,326.8
2020-03-13T07:40:03,42.805,6.029,-0.05,0.025,-0.055,106.0,108.0,100.0,13.4,1505.3,324.7,-0.7,1.9,2470.361,13.33,0.055,296.6
2020-03-13T07:43:03,42.805,6.029,-0.05,0.027,0.004,105.0,109.0,101.0,13.3,1505.3,326.5,-0.7,1.8,2470.329,13.33,0.056,298.4
2020-03-13T07:46:03,42.805,6.029,-0.048,0.04,-0.016,103.0,106.0,102.0,13.4,1505.3,326.1,-0.7,1.9,2470.356,13.33,0.062,309.8
2020-03-13T07:49:03,42.805,6.029,-0.047,0.028,-0.058,105.0,107.0,100.0,13.4,1505.3,326.4,-0.7,1.9,2470.338,13.33,0.054,300.8
2020-03-13T07:55:03,42.805,6.029,-0.054,0.024,-0.008,104.0,108.0,102.0,13.4,1505.3,324.7,-0.8,1.8,2470.358,13.31,0.059,294.0
2020-03-13T07:58:03,42.805,6.029,-0.049,0.003,-0.046,104.0,107.0,101.0,13.4,1505.3,323.2,-0.7,1.8,2470.369,13.31,0.049,273.5
2020-03-13T08:04:03,42.805,6.029,-0.076,0.032,-0.035,104.0,109.0,102.0,13.3,1505.2,323.9,-0.7,1.8,2470.393,13.3,0.082,292.8
2020-03-13T08:07:03,42.805,6.029,-0.062,0.044,-0.021,103.0,106.0,101.0,13.3,1505.3,322.8,-0.7,1.8,2470.401,13.31,0.076,305.4
2020-03-13T08:10:03,42.805,6.029,-0.069,0.029,-0.038,103.0,106.0,101.0,13.4,1505.3,325.5,-0.7,1.8,2470.424,13.32,0.074,292.8
2020-03-13T08:13:03,42.805,6.029,-0.047,0.04,-0.027,104.0,107.0,102.0,13.3,1505.3,326.8,-0.7,1.8,2470.408,13.32,0.061,310.4
2020-03-13T08:16:03,42.805,6.029,-0.055,0.001,-0.068,104.0,109.0,100.0,13.4,1505.3,324.9,-0.7,1.8,2470.396,13.32,0.055,271.0
2020-03-13T08:19:03,42.805,6.029,-0.052,0.04,-0.01,103.0,108.0,102.0,13.4,1505.3,326.6,-0.7,1.8,2470.381,13.32,0.065,307.6
2020-03-13T08:22:03,42.805,6.029,-0.054,0.034,-0.044,102.0,108.0,101.0,13.4,1505.3,323.7,-0.7,1.8,2470.388,13.33,0.063,302.2
2020-03-13T08:25:03,42.805,6.029,-0.04,0.044,-0.034,105.0,108.0,101.0,13.3,1505.3,328.1,-0.7,1.8,2470.374,13.33,0.059,317.7
2020-03-13T08:28:03,42.805,6.029,-0.052,0.026,-0.039,105.0,107.0,100.0,13.4,1505.3,326.8,-0.7,1.8,2470.408,13.33,0.058,296.6
2020-03-13T08:31:03,42.805,6.029,-0.048,0.044,-0.031,104.0,108.0,101.0,13.4,1505.3,326.8,-0.7,1.8,2470.361,13.33,0.065,312.5
2020-03-13T08:34:03,42.805,6.029,-0.065,0.04,0.007,105.0,110.0,101.0,13.4,1505.3,324.5,-0.7,1.8,2470.397,13.33,0.076,301.6
2020-03-13T08:37:03,42.805,6.029,-0.047,0.031,-0.023,101.0,108.0,101.0,13.3,1505.3,326.2,-0.7,1.9,2470.435,13.33,0.056,303.4
2020-03-13T08:40:03,42.805,6.029,-0.058,0.046,-0.021,105.0,108.0,101.0,13.4,1505.3,325.8,-0.7,1.8,2470.386,13.33,0.074,308.4
2020-03-13T08:43:03,42.805,6.029,-0.07,0.022,-0.033,103.0,107.0,102.0,13.3,1505.3,324.1,-0.7,1.8,2470.402,13.33,0.073,287.4
2020-03-13T08:46:03,42.805,6.029,-0.047,0.026,-0.029,103.0,108.0,101.0,13.4,1505.3,325.2,-0.7,1.8,2470.36,13.33,0.053,298.9
2020-03-13T08:49:03,42.805,6.029,-0.033,0.028,-0.039,104.0,109.0,101.0,13.3,1505.3,325.1,-0.7,1.8,2470.388,13.33,0.043,310.3
2020-03-13T08:52:03,42.805,6.029,-0.051,0.036,-0.015,103.0,107.0,101.0,13.4,1505.3,326.4,-0.7,1.8,2470.382,13.33,0.062,305.2
2020-03-13T08:55:03,42.805,6.029,-0.044,0.043,-0.011,105.0,109.0,101.0,13.4,1505.3,328.1,-0.7,1.8,2470.385,13.33,0.061,314.3
2020-03-13T08:58:03,42.805,6.029,-0.043,0.026,-0.027,105.0,108.0,101.0,13.4,1505.3,326.6,-0.7,1.8,2470.42,13.33,0.05,301.2
2020-03-13T09:04:03,42.805,6.029,-0.037,0.028,-0.023,104.0,108.0,100.0,13.4,1505.3,324.3,-0.8,1.8,2470.422,13.31,0.046,307.1
2020-03-13T09:07:03,42.805,6.029,-0.066,0.026,-0.039,103.0,109.0,100.0,13.3,1505.3,323.5,-0.7,1.8,2470.404,13.31,0.07,291.5
2020-03-13T09:10:03,42.805,6.029,-0.074,0.029,-0.052,103.0,108.0,102.0,13.4,1505.3,324.8,-0.7,1.8,2470.416,13.32,0.079,291.4
2020-03-13T09:13:03,42.805,6.029,-0.044,0.045,-0.031,104.0,109.0,100.0,13.4,1505.3,327.3,-0.7,1.8,2470.353,13.32,0.062,315.6
2020-03-13T09:16:03,42.805,6.029,-0.055,0.038,-0.025,105.0,109.0,100.0,13.3,1505.3,326.5,-0.7,1.8,2470.375,13.32,0.066,304.6
2020-03-13T09:19:03,42.805,6.029,-0.053,0.029,-0.01,103.0,109.0,101.0,13.3,1505.3,327.9,-0.7,1.9,2470.395,13.32,0.06,298.7
2020-03-13T09:22:03,42.805,6.029,-0.004,0.027,-0.008,104.0,108.0,101.0,13.3,1505.3,324.1,-0.7,1.8,2470.386,13.33,0.027,351.6
2020-03-13T09:25:03,42.805,6.029,-0.053,0.015,-0.034,104.0,109.0,100.0,13.4,1505.3,323.5,-0.7,1.8,2470.424,13.33,0.055,285.8
2020-03-13T09:28:03,42.805,6.029,-0.02,0.013,0.0,103.0,108.0,101.0,13.4,1505.3,325.2,-0.7,1.8,2470.386,13.33,0.023,303.0
2020-03-13T09:31:03,42.805,6.029,-0.065,0.007,-0.057,104.0,107.0,102.0,13.4,1505.3,325.0,-0.7,1.8,2470.411,13.33,0.065,276.1
2020-03-13T09:34:03,42.805,6.029,-0.054,0.022,-0.041,104.0,106.0,102.0,13.3,1505.3,325.0,-0.7,1.8,2470.361,13.33,0.058,292.2
2020-03-13T09:37:03,42.805,6.029,-0.058,0.028,-0.047,104.0,107.0,102.0,13.4,1505.3,327.9,-0.7,1.8,2470.387,13.33,0.064,295.8
2020-03-13T09:40:03,42.805,6.029,-0.069,0.032,-0.054,107.0,108.0,101.0,13.4,1505.3,324.2,-0.8,1.9,2470.385,13.33,0.076,294.9
2020-03-13T09:43:03,42.805,6.029,-0.049,0.036,-0.033,104.0,108.0,102.0,13.4,1505.3,325.3,-0.7,1.8,2470.327,13.33,0.06,306.3
2020-03-13T09:46:03,42.805,6.029,-0.069,0.02,-0.029,105.0,105.0,102.0,13.4,1505.3,326.9,-0.7,1.8,2470.396,13.33,0.071,286.2
2020-03-13T09:49:03,42.805,6.029,-0.061,0.023,0.005,106.0,109.0,102.0,13.3,1505.3,323.5,-0.7,1.8,2470.401,13.33,0.065,290.7
2020-03-13T09:52:03,42.805,6.029,-0.057,0.037,-0.039,105.0,109.0,101.0,13.4,1505.3,328.1,-0.7,1.8,2470.368,13.33,0.067,303.0
2020-03-13T09:55:03,42.805,6.029,-0.062,0.022,-0.044,106.0,110.0,102.0,13.4,1505.3,326.5,-0.7,1.8,2470.426,13.33,0.065,289.5